Flag for U.S.A. Weather past 2 weeks in Jefferson City, Missouri, U.S.A.

Now
47 °F

Passing clouds.


Feels Like: 44 °F
Forecast: 46 / 67 °F
Wind: 6 mph from Southeast

Location: Jefferson City Memorial Airport

Current Time: Oct 23, 2014 at 7:53:07 AM

Latest Report: Oct 23, 2014 at 6:53 AM


Visibility: 10 mi

Pressure: 30.13 "Hg

Humidity: 83%

Dew point: 42 °F

Location of Jefferson CityLocation

Historic Weather in Jefferson City — Graph

°F

Jefferson City temperature yesterday

Maximum temperature yesterday: 68 °F (at 3:53 PM)
Minimum temperature yesterday: 44 °F (at 5:53 AM)
Average temperature yesterday: 54 °F

Past Weeks' High & Low Weather Summary

 TemperatureHumidityPressure
High77 °F (Oct 8, 2:53 PM)100% (Oct 8, 6:23 AM)30.27 "Hg (Oct 8, 6:23 AM)
Low32 °F (Oct 8, 6:23 AM)27% (Oct 15, 4:53 PM)29.38 "Hg (Oct 13, 4:53 PM)
Average56 °F76%29.94 "Hg
* Reported Oct 8 6:23 AM — Oct 23 6:53 AM, Jefferson City, Weather by CustomWeather, © 2014

Note: Actual official high and low records may vary slightly from our data, if they occured in-between our weather recording intervals... More about our weather records

Advertising

Jefferson City weather history for previous 24 hours

 ConditionsComfort  
Time TempWeatherWind HumidityBarometerVisibility
6:53 AM
Oct 23
47 °FPassing clouds.6 mph83%30.13 "Hg10 mi
5:53 AM45 °FClear.5 mph86%30.15 "Hg10 mi
4:53 AM43 °FClear.5 mph89%30.15 "Hg10 mi
3:53 AM43 °FClear.5 mph86%30.15 "Hg10 mi
2:53 AM46 °FClear.5 mph83%30.15 "Hg10 mi
1:53 AM46 °FClear.7 mph79%30.15 "Hg10 mi
12:53 AM45 °FClear.6 mph82%30.15 "Hg10 mi
11:53 PM
Oct 22
47 °FClear.6 mph80%30.15 "Hg10 mi
10:53 PM48 °FClear.5 mph77%30.16 "Hg10 mi
9:53 PM47 °FClear.6 mph80%30.17 "Hg10 mi
8:53 PM50 °FClear.6 mph74%30.16 "Hg10 mi
7:53 PM55 °FClear.6 mph62%30.16 "Hg10 mi
6:53 PM57 °FSunny.3 mph58%30.15 "Hg10 mi
5:53 PM64 °FSunny.8 mph43%30.13 "Hg10 mi
4:53 PM68 °FSunny.7 mph36%30.13 "Hg10 mi
3:53 PM68 °FSunny.7 mph39%30.15 "Hg10 mi
2:53 PM67 °FSunny.7 mph42%30.16 "Hg10 mi
1:53 PM65 °FSunny.6 mph44%30.19 "Hg10 mi
12:53 PM63 °FSunny.8 mph48%30.22 "Hg10 mi
11:53 AM60 °FSunny.7 mph53%30.26 "Hg10 mi
10:53 AM56 °FSunny.8 mph60%30.27 "Hg10 mi
9:53 AM52 °FSunny.8 mph75%30.27 "Hg10 mi
8:53 AM48 °FSunny.9 mph80%30.26 "Hg10 mi
7:53 AM45 °FClear.7 mph86%30.24 "Hg10 mi
Weather by CustomWeather, © 2014

See weather overviewHow to use our weather pages